7 * 24
多渠道服务支持
STARLINK-11238 是 SpaceX Starlink 卫星互联网项目中的一颗低轨卫星,属于第54组 Starlink 卫星群。该卫星于2022年发射,运行在约550公里高度的近地轨道,旨在为全球用户提供高速互联网服务。Starlink 项目通过部署大量卫星,构建覆盖全球的宽带网络,特别服务于偏远地区。STARLINK-11238 采用可再生太阳能供电,具备自动避撞功能,有助于减少太空碎片风险。该卫星是 SpaceX 扩展全球网络覆盖计划的重要组成部分。
美国
(US)
| 数据来源 | 国际轨道数据 |
| 星历时间: | 2025-12-14T18:42:31+0800 1天前 查看轨道信息 |
| 半长轴: | 6737.887km |
| 偏心率: | 0.0001157 |
| 轨道倾角: | 53.161° |
| 近地点辐角 | 78.756° |
| 升交点赤经 | 41.495° |
| 平近点角 | 281.359° |
| 近地点: | 358.972km |
| 远地点: | 360.532km |
| 周期: | 91.737分钟 |
| 每日圈数: | 15.697019 |